カタログに戻る

STARLINK-32016

運用中通信VLEO
NORAD 60096·PAYLOAD·🇺🇸 United States

打ち上げ Jun 23, 2024 から Cape Canaveral Space Force Station

Loading…

次のパス (今後24時間)

TLE

最新Source: CelesTrak SupGP

元期: Sep 15, 2026, 03:07 UTC

1 60096C 24117F   26258.13034722 -.00037883  00000+0 -11185-2 0  2587
2 60096  53.1573 235.0373 0001362  83.0855 187.2125 15.34429124    13

AllMySatでSTARLINK-32016をリアルタイム追跡

Download on the App Store